Weather History for Louisa, VA

Change the Weather History Date:

Tuesday, January 29, 2013

  Actual Average (KCHO) Record (KCHO)
Temperature  
Mean Temperature 58 °F 36 °F  
Max Temperature 75 °F 45 °F 74 °F (2002)
Min Temperature 42 °F 26 °F 5 °F (2014)
Degree Days  
Heating Degree Days 6 29  
Month to date heating degree days 866  
Since 1 July heating degree days 2602  
Cooling Degree Days 0 0  
Month to date cooling degree days 0  
Year to date cooling degree days 0  
Growing Degree Days 8 (Base 50)    
Moisture  
Dew Point 47 °F    
Average Humidity 66    
Maximum Humidity 87    
Minimum Humidity 47    
Precipitation  
Precipitation 0.00 in 0.07 in 0.63 in (1952)
Month to date precipitation 2.62  
Year to date precipitation 2.62  
Sea Level Pressure  
Sea Level Pressure 30.06 in    
Wind  
Wind Speed 5 mph (SSW)    
Max Wind Speed 10 mph    
Max Gust Speed -    
Visibility 10 miles    
Events      
T = Trace of Precipitation, MM = Missing Value Source: NWS Daily Summary

Daily Weather History Graph

Daily Weather History Graph

Search for Another Location

Airport:

Trip Planner

Search our weather history database for the weather conditions in past years. The results will help you decide how hot, cold, wet, or windy it might be!

Date:

Astronomy

Jan. 29, 2013 Rise Set
Actual Time 7:18 AM EST 5:31 PM EST
Civil Twilight 6:50 AM EST 5:59 PM EST
Nautical Twilight 6:19 AM EST 6:31 PM EST
Astronomical Twilight 5:48 AM EST 7:02 PM EST
Moon 8:22 PM EST (1/29) 8:17 AM EST (1/29)
Length of Visible Light 11h 09m
Length of Day
10h 13m
Waning Gibbous, 94% of the Moon is Illuminated
Jan 29
Waning Gibbous
Feb 3
Last Quarter
Feb 10
New
Feb 17
First Quarter
Feb 25
Full

Hourly Weather History & Observations

Time (EST) Temp. Windchill Dew Point Humidity Pressure Visibility Wind Dir Wind Speed Gust Speed Precip Events Conditions
12:15 AM 48.2 °F - 42.8 °F 82% 30.09 in 10.0 mi SW 6.9 mph - N/A   Clear
12:35 AM 46.4 °F 43.5 °F 41.0 °F 81% 30.07 in 10.0 mi SW 5.8 mph - N/A   Clear
12:55 AM 46.4 °F 44.3 °F 41.0 °F 81% 30.08 in 10.0 mi SW 4.6 mph - N/A   Clear
1:15 AM 46.4 °F 44.3 °F 41.0 °F 81% 30.07 in 10.0 mi SSW 4.6 mph - N/A   Clear
1:35 AM 46.4 °F 43.5 °F 41.0 °F 81% 30.08 in 10.0 mi SW 5.8 mph - N/A   Clear
1:55 AM 46.4 °F 43.5 °F 41.0 °F 81% 30.08 in 10.0 mi SW 5.8 mph - N/A   Clear
2:15 AM 46.4 °F 44.3 °F 41.0 °F 81% 30.08 in 10.0 mi SW 4.6 mph - N/A   Scattered Clouds
2:35 AM 46.4 °F 44.3 °F 41.0 °F 81% 30.08 in 10.0 mi SW 4.6 mph - N/A   Scattered Clouds
2:55 AM 46.4 °F 44.3 °F 41.0 °F 81% 30.08 in 10.0 mi WSW 4.6 mph - N/A   Scattered Clouds
3:15 AM 46.4 °F 42.9 °F 41.0 °F 81% 30.08 in 10.0 mi SW 6.9 mph - N/A   Scattered Clouds
3:35 AM 46.4 °F 42.9 °F 41.0 °F 81% 30.07 in 10.0 mi SW 6.9 mph - N/A   Clear
3:55 AM 46.4 °F 44.3 °F 41.0 °F 81% 30.08 in 10.0 mi SW 4.6 mph - N/A   Clear
4:15 AM 46.4 °F 44.3 °F 41.0 °F 81% 30.07 in 10.0 mi SSW 4.6 mph - N/A   Clear
4:35 AM 46.4 °F 44.3 °F 41.0 °F 81% 30.07 in 10.0 mi SSW 4.6 mph - N/A   Clear
4:55 AM 46.4 °F 45.2 °F 41.0 °F 81% 30.08 in 10.0 mi South 3.5 mph - N/A   Clear
5:15 AM 46.4 °F - 41.0 °F 81% 30.08 in 10.0 mi Calm Calm - N/A   Clear
5:35 AM 46.4 °F 44.3 °F 41.0 °F 81% 30.08 in 10.0 mi SW 4.6 mph - N/A   Clear
5:55 AM 46.4 °F 44.3 °F 41.0 °F 81% 30.09 in 10.0 mi WSW 4.6 mph - N/A   Clear
6:15 AM 44.6 °F 42.2 °F 41.0 °F 87% 30.10 in 10.0 mi SW 4.6 mph - N/A   Clear
6:35 AM 46.4 °F - 41.0 °F 81% 30.09 in 10.0 mi Calm Calm - N/A   Clear
7:15 AM 44.6 °F - 41.0 °F 87% 30.10 in 10.0 mi Calm Calm - N/A   Clear
7:35 AM 42.8 °F 41.1 °F 39.2 °F 87% 30.10 in 5.0 mi SSW 3.5 mph - N/A   Clear
7:55 AM 44.6 °F 42.2 °F 41.0 °F 87% 30.11 in 7.0 mi SW 4.6 mph - N/A   Clear
8:15 AM 46.4 °F 45.2 °F 42.8 °F 87% 30.11 in 10.0 mi SW 3.5 mph - N/A   Scattered Clouds
8:35 AM 48.2 °F - 42.8 °F 82% 30.11 in 10.0 mi Calm Calm - N/A   Clear
8:55 AM 50.0 °F - 42.8 °F 76% 30.12 in 10.0 mi SSW 3.5 mph - N/A   Clear
9:15 AM 51.8 °F - 44.6 °F 76% 30.12 in 10.0 mi SW 4.6 mph - N/A   Clear
9:35 AM 53.6 °F - 44.6 °F 72% 30.12 in 10.0 mi SSW 4.6 mph - N/A   Clear
10:15 AM 57.2 °F - 46.4 °F 67% 30.12 in 10.0 mi SW 3.5 mph - N/A   Clear
10:35 AM 59.0 °F - 48.2 °F 67% 30.13 in 10.0 mi SW 5.8 mph - N/A   Clear
10:55 AM 60.8 °F - 48.2 °F 63% 30.12 in 10.0 mi WSW 5.8 mph - N/A   Clear
11:15 AM 62.6 °F - 48.2 °F 59% 30.11 in 10.0 mi SW 5.8 mph - N/A   Clear
11:35 AM 64.4 °F - 50.0 °F 59% 30.10 in 10.0 mi South 4.6 mph - N/A   Clear
11:55 AM 66.2 °F - 51.8 °F 60% 30.09 in 10.0 mi SSW 5.8 mph - N/A   Clear
12:15 PM 69.8 °F - 51.8 °F 53% 30.08 in 10.0 mi SW 4.6 mph - N/A   Clear
12:35 PM 69.8 °F - 51.8 °F 53% 30.07 in 10.0 mi WSW 8.1 mph - N/A   Clear
12:55 PM 71.6 °F - 51.8 °F 50% 30.05 in 10.0 mi WSW 4.6 mph - N/A   Clear
1:15 PM 71.6 °F - 51.8 °F 50% 30.05 in 10.0 mi WSW 5.8 mph - N/A   Clear
1:35 PM 73.4 °F - 53.6 °F 50% 30.04 in 10.0 mi South 5.8 mph - N/A   Clear
1:55 PM 73.4 °F - 53.6 °F 50% 30.03 in 10.0 mi South 4.6 mph - N/A   Clear
2:15 PM 73.4 °F - 53.6 °F 50% 30.03 in 10.0 mi SW 4.6 mph - N/A   Clear
2:35 PM 75.2 °F - 53.6 °F 47% 30.03 in 10.0 mi South 6.9 mph - N/A   Clear
2:55 PM 73.4 °F - 53.6 °F 50% 30.03 in 10.0 mi SSW 10.4 mph - N/A   Clear
3:15 PM 73.4 °F - 53.6 °F 50% 30.02 in 10.0 mi SSW 5.8 mph - N/A   Clear
3:35 PM 73.4 °F - 53.6 °F 50% 30.02 in 10.0 mi South 5.8 mph - N/A   Clear
3:55 PM 73.4 °F - 53.6 °F 50% 30.02 in 10.0 mi SW 8.1 mph - N/A   Clear
4:15 PM 73.4 °F - 53.6 °F 50% 30.02 in 10.0 mi South 4.6 mph - N/A   Clear
4:35 PM 71.6 °F - 53.6 °F 53% 30.02 in 10.0 mi SSW 3.5 mph - N/A   Clear
4:55 PM 71.6 °F - 51.8 °F 50% 30.02 in 10.0 mi Calm Calm - N/A   Clear
5:15 PM 69.8 °F - 51.8 °F 53% 30.02 in 10.0 mi South 3.5 mph - N/A   Clear
5:35 PM 69.8 °F - 51.8 °F 53% 30.01 in 10.0 mi South 3.5 mph - N/A   Clear
5:55 PM 68.0 °F - 50.0 °F 52% 30.01 in 10.0 mi South 5.8 mph - N/A   Clear
6:15 PM 68.0 °F - 50.0 °F 52% 30.01 in 10.0 mi South 4.6 mph - N/A   Clear
6:35 PM 68.0 °F - 50.0 °F 52% 30.02 in 10.0 mi South 6.9 mph - N/A   Clear
6:55 PM 66.2 °F - 48.2 °F 52% 30.01 in 10.0 mi South 4.6 mph - N/A   Clear
7:15 PM 66.2 °F - 48.2 °F 52% 30.02 in 10.0 mi South 4.6 mph - N/A   Clear
7:35 PM 66.2 °F - 48.2 °F 52% 30.01 in 10.0 mi South 3.5 mph - N/A   Clear
7:55 PM 66.2 °F - 48.2 °F 52% 30.01 in 10.0 mi South 4.6 mph - N/A   Clear
8:15 PM 64.4 °F - 48.2 °F 56% 30.02 in 10.0 mi South 5.8 mph - N/A   Clear
8:35 PM 64.4 °F - 48.2 °F 56% 30.02 in 10.0 mi South 4.6 mph - N/A   Clear
8:55 PM 64.4 °F - 50.0 °F 59% 30.01 in 10.0 mi SSE 5.8 mph - N/A   Clear
9:15 PM 64.4 °F - 50.0 °F 59% 30.01 in 10.0 mi South 5.8 mph - N/A   Clear
9:35 PM 62.6 °F - 50.0 °F 63% 30.01 in 10.0 mi South 4.6 mph - N/A   Clear
9:55 PM 62.6 °F - 50.0 °F 63% 30.01 in 10.0 mi South 5.8 mph - N/A   Clear
10:15 PM 62.6 °F - 50.0 °F 63% 30.02 in 10.0 mi South 4.6 mph - N/A   Clear
10:35 PM 62.6 °F - 51.8 °F 68% 30.01 in 10.0 mi South 4.6 mph - N/A   Clear
10:55 PM 62.6 °F - 51.8 °F 68% 30.01 in 10.0 mi South 4.6 mph - N/A   Mostly Cloudy
11:15 PM 62.6 °F - 51.8 °F 68% 29.99 in 10.0 mi SSE 5.8 mph - N/A   Overcast
11:35 PM 62.6 °F - 51.8 °F 68% 29.99 in 10.0 mi South 4.6 mph - N/A   Mostly Cloudy
11:55 PM 62.6 °F - 53.6 °F 72% 29.98 in 10.0 mi South 5.8 mph - N/A   Mostly Cloudy